{"data":{"norad_id":53823,"epoch":"2026-09-20T21:49:11.276256Z","epoch_age_seconds":48964,"freshness":"FRESH","line1":"1 53823U 22114F   26263.90915829 -.00002321  00000+0 -57597-4 0  9999","line2":"2 53823  53.1594  89.4560 0001271  81.0209 279.0937 15.34384422223115","mean_motion":15.34384422,"eccentricity":0.0001271,"inclination_deg":53.1594,"raan_deg":89.456,"arg_perigee_deg":81.0209,"mean_anomaly_deg":279.0937,"bstar":-5.7597e-5,"rev_number":22311,"period_min":93.848710880617,"perigee_km":461.8800650183,"apogee_km":463.6190183772,"semimajor_km":6840.8865416978,"source":"CELESTRAK","updated_at":"2026-09-21T09:00:32.997979Z"}}